Home > Time Zones > World Clock > Weather > Peru > Lima > Past weeks

Flag for Peru Weather past 2 weeks in Lima, Lima, Peru

Now
61 °F

Clear.


Feels Like: 61 °F
Forecast: 65 / 72 °F
Wind: 5 mph from South

Location: Lima-Callao / Aerop. Internacional Jorgechavez

Current Time: Sep 2, 2015 at 6:00:51 AM

Latest Report: Sep 2, 2015 at 5:00 AM


Visibility: 10 mi

Pressure: 29.98 "Hg

Humidity: 88%

Dew point: 57 °F

Location of LimaLocation

Historic Weather in Lima — Graph

°F

Lima temperature yesterday

Maximum temperature yesterday: 73 °F (at 1:00 PM)
Minimum temperature yesterday: 66 °F (at 12:00 AM)
Average temperature yesterday: 68 °F

Past Weeks' High & Low Weather Summary

 TemperatureHumidityPressure
High73 °F (Aug 30, 12:00 PM)94% (Aug 20, 3:00 AM)30.04 "Hg (Aug 20, 3:00 AM)
Low61 °F (Aug 20, 3:00 AM)61% (Aug 30, 12:00 PM)29.83 "Hg (Aug 29, 4:00 PM)
Average65 °F80%29.94 "Hg
* Reported Aug 18 5:00 AM — Sep 2 5:00 AM, Lima, Weather by CustomWeather, © 2015

Note: Actual official high and low records may vary slightly from our data, if they occured in-between our weather recording intervals... More about our weather records

Advertising

Lima weather history for previous 24 hours

 ConditionsComfort  
Time TempWeatherWind HumidityBarometerVisibility
5:00 AM
Wed, Sep 2
61 °FClear.5 mph88%29.98 "Hg10 mi
4:00 AM63 °FClear.5 mph83%29.98 "Hg10 mi
3:00 AM61 °FClear.5 mph88%29.98 "Hg10 mi
2:00 AM63 °FClear.2 mph88%29.98 "Hg10 mi
1:00 AM63 °FClear.3 mph88%30.01 "Hg10 mi
12:00 AM64 °FClear.7 mph88%30.01 "Hg10 mi
11:00 PM
Tue, Sep 1
66 °FClear.8 mph78%30.01 "Hg10 mi
10:00 PM66 °FPassing clouds.9 mph83%30.01 "HgN/A
9:00 PM66 °FPassing clouds.9 mph78%29.98 "HgN/A
8:00 PM68 °FPassing clouds.10 mph73%29.98 "HgN/A
7:00 PM68 °FPassing clouds.10 mph73%29.98 "HgN/A
6:00 PM68 °FSunny.12 mph73%29.95 "Hg10 mi
4:00 PM72 °FPassing clouds.10 mph65%29.95 "HgN/A
3:00 PM73 °FPassing clouds.10 mph61%29.95 "HgN/A
2:00 PM73 °FScattered clouds.10 mph65%29.98 "HgN/A
1:00 PM73 °FScattered clouds.7 mph65%29.98 "HgN/A
12:00 PM72 °FOvercast.6 mph69%30.01 "HgN/A
11:00 AM70 °FOvercast.5 mph73%30.01 "HgN/A
10:00 AM68 °FMore clouds than sun.5 mph78%30.01 "Hg5 mi
9:00 AM68 °FOvercast.3 mph78%30.01 "Hg4 mi
8:00 AM66 °FFog.5 mph83%30.01 "Hg3 mi
7:00 AM66 °FFog.2 mph83%30.01 "Hg3 mi
6:00 AM66 °FOvercast.2 mph83%30.01 "Hg4 mi
Weather by CustomWeather, © 2015

See weather overviewHow to use our weather pages